Lid_Strength_Index
3 3 3 3 3 3 3 3 3 2 2 2 2 2 2 3 2 2 2 3 3 3
3 3 3 3 3 3 3 3 2 2 2 2 2 2 2 2 2 2 2 2 2 3
3 3 3 2 3 3 3 2 2 2 2 2 2 2 2 2 2 2 2 2 2 2
2 2 3 3 3 3 3 2 2 2 2 2 2 2 2 1 1 2 2 2 2 2
3 3 3 2 2 2 3 2 2 2 1 1 1 2 2 2 1 2 2 2 2 2
2 3 3 3 2 3 2 2 1 2 2 1 2 2 2 1 1 2 2 2 2 2
2 3 3 2 2 2 2 1 1 1 1 1 2 1 1 1 1 2 2 2 2 2
2 2 2 2 2 1 1 1 1 1 2 3 3 3 3 2 2 2 2 2 2 1
2 2 2 2 2 3 2 1 1 2 3 4 3 9 8 4 2 2 2 3 2 2
2 2 2 2 2 3 2 2 2 3 4 5 5 10 10 6 2 2 2 2 2 3
2 2 2 2 2 3 3 3 3 4 4 5 4 10 10 7 2 3 2 2 2 3
2 2 2 2 3 3 3 3 4 4 4 4 5 10 10 4 3 2 2 1 2 2
2 2 2 2 3 3 3 2 2 3 4 5 4 11 10 4 2 2 2 2 3 7
2 3 2 3 3 3 3 3 2 4 4 3 5 7 10 7 3 2 2 2 3 4